SL-14 DEB, 45336

Orbit data source: Space-Track

SL-14 DEB, 45336 is space debris in LEO originally from a launch on Thu, 15 Aug 1991 UTC launched from the Plesetsk Missile And Space Complex (PKMTR). Debris objects in space refer to the collection of defunct objects orbiting the Earth. Examples of debris include non-operational satellites, rocket bodies, and fragments generated from explosions, collisions, or faulty payload assembly.

Loading next visibility...
Identifier
45336, 1991-056CA
Orbit
LEO
Country
Flag of CISCIS
Related business
Manufacturer
Unknown
Mission
Spacecraft
Bus & Motor
Unknown
Mass
Unknown
Launch date (UTC)
1991-08-15 (34 years ago)
Launch vehicle
Unknown
Launch site
Plesetsk Missile And Space Complex (PKMTR)
Object type
Payload
Rocket body
Debris
Shape & HBR
Unknown shape, 0.1 m
Radar Cross Section
Small (<0.1 m²)

Expand to show TLE details & history
Last TLE update: 13 hours ago

TLE from 13 hours ago
0 SL-14 DEB
1 45336U 91056CA  26035.53934706  .00001227  00000-0  25316-2 0  9996
2 45336  82.5769 207.0107 0057058 295.6469  63.8774 13.31198343288136
Epoch: 2026-02-04T12:56Z
TLE epoch observation values (Epoch: 2026-02-04T12:56:39.585Z)
Latitude
-0.00004°
Longitude
-121.85872°
Altitude
1,126.377 km
Speed
7.299 km/s
True Right ascension
13h 48m 02s
True Declination
0° 00' 00"
Sunlit
Object was in daylight at epoch
Visualization orbit readout
Latitude
Unknown
Longitude
Unknown
Altitude
Unknown
Speed
Unknown
Apparent Right ascension
Unknown
Apparent Declination
Unknown
Sunlit
N/A
Visualization observer readout
Local Sidereal Time
03:53:16
Azimuth
Unknown
Elevation
Unknown
Doppler factor
Unknown
Orbital elements
Apogee altitude
1,182.364 km
Perigee altitude
1,096.576 km
Semi-major axis
7,517.607 km
Eccentricity
0.00571
Inclination
82.5769°
RAAN
207.0107°
Arg. of periapsis
295.6469°
True anomaly
64.46629°
Mean anomaly
63.8774°
Eccentric anomaly
64.17166°
Mean motion
3.32984 °/min
Orbital period
108.11 mins
BSTAR
0.0025316
Loading maneuver chart data...
Computing Atmospheric mass density...
Loading historical data...
Loading historical data...
Loading historical data...
Loading historical data...
Loading historical data...
Loading historical data...
Loading historical data...

Documentation

Showing up to 5 results
|